Regional Weather Roundup
Issued by NWS

Home | Current Version | Previous Version | Text Only | Print | Product List | Glossary On
Versions: 1 2 3 4 5 6 7 8 9 10 11 12 13 14 15 16 17 18 19 20 21 22 23 24 25 26 27 28 29 30 31 32 33 34 35 36 37 38 39 40 41 42 43 44 45 46 47 48 49 50
000
ASUS44 KLIX 210906
RWRLA
LOUISIANA WEATHER ROUNDUP
NATIONAL WEATHER SERVICE NEW ORLEANS LA
400 AM CDT MON MAY 21 2018

NOTE: "FAIR" INDICATES FEW OR NO CLOUDS BELOW 12,000 FEET WITH NO
      SIGNIFICANT WEATHER AND/OR OBSTRUCTIONS TO VISIBILITY.
      SKY/WX - SKY CONDITION AND SIGNIFICANT WEATHER.
      TMP - AIR TEMPERATURE.    DP   - DEWPOINT TEMPERATURE.
      RH  - RELATIVE HUMIDITY.  PRES - PRESSURE.
      HX  - HEAT INDEX.         WCI  - WIND CHILL INDEX.

*  THESE STATIONS ARE NOT NWS OR FAA STATIONS AND ARE NOT UNDER
   NWS QUALITY CONTROL.

LAZ040-048-061>063-065-066-069-211000-
SOUTHEAST LOUISIANA

CITY           SKY/WX    TMP DP  RH WIND       PRES   REMARKS
N.O. INTL ARPT FAIR      72  72 100 CALM      29.97F
N.O. LAKEFRONT FAIR      77  72  84 SE5       29.98F
N.O. DOWNTOWN* FAIR      78  72  81 SE3       29.99F
RESERVE*         N/A     73  69  89 CALM      29.98F
SLIDELL        FAIR      68  65  90 CALM      29.98F
BATON ROUGE    FAIR      70  68  93 NE5       29.98S
BOOTHVILLE     FAIR      77  73  87 CALM      29.98F
BELLE CHASSE   FAIR      70  70 100 CALM      29.97F FOG
BOGALUSA*      FAIR      69  65  88 CALM      30.00F
GALLIANO*      FAIR      68  65  91 CALM      29.97F FOG
NEW ROADS*     FAIR      70  67  92 CALM      29.99R
GONZALES*      FAIR      69  68  97 CALM      29.97S
HAMMOND*       FAIR      68  68 100 CALM      29.99S
HOUMA*         FAIR      71  70  98 CALM      29.97S
PORT FOURCHON* PTSUNNY   79  72  78 SE3       29.98S

$$

LAZ041-044-053-054-211000-
SOUTHWEST LOUISIANA

CITY           SKY/WX    TMP DP  RH WIND       PRES   REMARKS
LAKE CHARLES   FAIR      73  71  93 E3        29.96S
LAFAYETTE      FAIR      73  72  96 CALM      29.97S
PATTERSON      FAIR      71  71 100 CALM      29.98S FOG
SALT POINT       N/A    N/A N/A N/A CALM      29.95S
NEW IBERIA     FAIR      73  69  87 CALM      29.98S
CHENAULT AIRPK FAIR      72  71  98 E5        29.97S

$$

LAZ027-028-211000-
CENTRAL LOUISIANA

CITY           SKY/WX    TMP DP  RH WIND       PRES   REMARKS
FORT POLK      NOT AVBL
ALEXANDRIA INT FAIR      70  68  93 CALM      29.97S
ALEXANDRIA     MOCLDY    66  66 100 CALM      29.99R

$$

LAZ001-002-211000-
NORTHWEST LOUISIANA

CITY           SKY/WX    TMP DP  RH WIND       PRES   REMARKS
SHREVEPORT     CLOUDY    69  67  93 S3        29.97F
BARKSDALE AFB  NOT AVBL
DTN SHREVEPORT FAIR      72  68  87 CALM      29.97F

$$

LAZ014-016-211000-
NORTHEAST LOUISIANA

CITY           SKY/WX    TMP DP  RH WIND       PRES   REMARKS
MONROE         FAIR      70  69  97 S3        29.98F
TALLULAH       FAIR      71  70  96 CALM      29.99S

$$




USA.gov is the U.S. government's official web portal to all federal, state and local government web resources and services.